Weather in Kamenskoye

Russia / Tula Oblast     53°10′53″N   37°47′14″E
temp.,
°C
wind,
m/s
gust,
m/s
humid.,
%
clouds,
%
prec.,
mm/h
press.,
hPa
HPBL,
m
14 april, wed
wed1400:00+11se496968 0.0 1022166
03:00+10sse4985100 0.0 1022161
06:00+9se3591100 0.0 102182
09:00+13se4676100 0.0 1020330
12:00+17se4649100 0.0 1019898
15:00+18se573377 0.0 10171531
18:00+17se363999 0.0 1016185
21:00+14s244292 0.0 101776
15 april, thu
thu1500:00+12e224799 0.0 101611
03:00+11ene2252100 0.0 101617
06:00+9ese3364100 0.0 101638
09:00+12se4963100 0.0 1016438
12:00+12se4869100 0.3 1015802
15:00+16sse465396 0.4 10141422
18:00+11e4987100 2.4 1015377
21:00+11e3784100 3.0 1015241
16 april, fri
fri1600:00+10ene228099 0.1 101419
03:00+10ene3381100 0.1 101460
06:00+9sse3589100 0.3 101590
09:00+11ne227792 0.4 1015170
12:00+15se3655100 0.0 10151323
15:00+15se5659100 1.8 10161075
18:00+14sse476363 2.0 1015448
21:00+12se337177 2.1 101730
17 april, sat
sat1700:00+10e3786100 0.0 1018153
03:00+9ese228676 0.0 101943
06:00+8e239488 0.4 102052
09:00+11ene5977100 0.3 1018446
12:00+14ene686895 0.0 10201162
15:00+16e8115999 1.9 10201641
18:00+11e51090100 9.9 1022500
21:00+11ne4894100 17.2 1023341
18 april, sun
sun1800:00+10ene5108354 2.6 1024389
03:00+8ene511795 2.8 1025308
06:00+6ene511804 0.0 1026305
09:00+9e577349 0.0 1027459
12:00+11e67637 0.0 1028781
15:00+14e67405 0.0 10281678
18:00+13e47545 0.0 1027532
21:00+9ene411625 0.0 1028247